Flag Weather past 2 weeks in Zweibrücken, Rhineland-Palatinate, Germany

Now
43 °F

Passing clouds.


Feels Like: 39 °F
Forecast: 37 / 51 °F
Wind: 6 mph from Northeast

Location: Saarbruecken / Ensheim

Current Time: Nov 21, 2014 at 7:17:27 PM

Latest Report: Nov 21, 2014 at 6:50 PM


Visibility: N/A

Pressure: 30.09 "Hg

Humidity: 87%

Dew point: 39 °F

Location of ZweibrückenLocation

Historic Weather in Zweibrücken — Graph

°F

Zweibrücken temperature yesterday

Maximum temperature yesterday: 46 °F (at 12:50 PM)
Minimum temperature yesterday: 39 °F (at 12:20 AM)
Average temperature yesterday: 42 °F

Past Weeks' High & Low Weather Summary

 TemperatureHumidityPressure
High55 °F (Nov 8, 2:20 PM)100% (Nov 6, 9:20 PM)30.27 "Hg (Nov 6, 9:20 PM)
Low30 °F (Nov 7, 4:50 AM)67% (Nov 8, 2:20 PM)29.53 "Hg (Nov 15, 3:20 AM)
Average45 °F92%29.82 "Hg
* Reported Nov 6 6:20 PM — Nov 21 6:20 PM, Zweibrücken, Weather by CustomWeather, © 2014

Note: Actual official high and low records may vary slightly from our data, if they occured in-between our weather recording intervals... More about our weather records

Advertising

Zweibrücken weather history for previous 24 hours

 ConditionsComfort  
Time TempWeatherWind HumidityBarometerVisibility
6:20 PM
Nov 21
43 °FPassing clouds.6 mph87%30.09 "HgN/A
5:50 PM43 °FPassing clouds.5 mph87%30.09 "HgN/A
5:20 PM43 °FPassing clouds.8 mph87%30.09 "Hg6 mi
4:50 PM45 °FPassing clouds.8 mph87%30.09 "Hg6 mi
4:20 PM45 °FPartly sunny.8 mph87%30.12 "HgN/A
3:50 PM45 °FPartly sunny.6 mph87%30.12 "HgN/A
3:20 PM43 °FPartly sunny.6 mph93%30.12 "HgN/A
2:50 PM43 °FPartly sunny.8 mph87%30.12 "HgN/A
2:20 PM43 °FOvercast.8 mph87%30.12 "Hg6 mi
1:50 PM43 °FOvercast.6 mph87%30.12 "Hg6 mi
1:20 PM43 °FOvercast.7 mph87%30.12 "Hg5 mi
12:50 PM41 °FOvercast.6 mph93%30.15 "Hg5 mi
12:20 PM41 °FPartly sunny.8 mph93%30.15 "Hg5 mi
11:50 AM41 °FPartly sunny.8 mph93%30.15 "Hg5 mi
11:20 AM41 °FPartly sunny.8 mph93%30.15 "Hg4 mi
10:50 AM41 °FPartly sunny.8 mph93%30.15 "Hg4 mi
10:20 AM41 °FPartly sunny.8 mph93%30.15 "Hg4 mi
9:50 AM41 °FPartly sunny.9 mph93%30.15 "Hg4 mi
9:20 AM39 °FFog.8 mph100%30.15 "Hg3 mi
8:50 AM39 °FFog.9 mph93%30.15 "Hg3 mi
8:20 AM39 °FFog.8 mph93%30.15 "Hg2 mi
7:50 AM39 °FFog.8 mph93%30.15 "Hg2 mi
7:20 AM39 °FFog.8 mph93%30.15 "Hg3 mi
6:50 AM39 °FPassing clouds.8 mph93%30.15 "Hg4 mi
6:20 AM39 °FPassing clouds.8 mph93%30.15 "Hg4 mi
5:50 AM39 °FPartly cloudy.9 mph93%30.15 "Hg5 mi
5:20 AM39 °FPassing clouds.9 mph93%30.15 "Hg5 mi
4:50 AM39 °FPassing clouds.9 mph93%30.15 "Hg6 mi
4:20 AM39 °FPassing clouds.9 mph93%30.18 "Hg6 mi
3:50 AM39 °FPassing clouds.9 mph100%30.18 "HgN/A
3:20 AM39 °FPassing clouds.9 mph100%30.18 "HgN/A
2:50 AM39 °FPassing clouds.9 mph100%30.18 "HgN/A
2:20 AM41 °FPassing clouds.10 mph93%30.18 "HgN/A
1:50 AM41 °FPassing clouds.9 mph93%30.18 "HgN/A
1:20 AM41 °FPassing clouds.8 mph93%30.21 "HgN/A
12:50 AM41 °FPartly cloudy.9 mph93%30.21 "HgN/A
12:20 AM41 °FClear.7 mph93%30.21 "Hg10 mi
11:50 PM
Nov 20
41 °FClear.10 mph93%30.21 "Hg10 mi
11:20 PM41 °FClear.13 mph93%30.21 "Hg10 mi
10:50 PM41 °FClear.13 mph93%30.21 "Hg10 mi
10:20 PM41 °FPassing clouds.12 mph93%30.21 "HgN/A
9:50 PM41 °FPassing clouds.10 mph93%30.24 "HgN/A
9:20 PM39 °FClear.8 mph93%30.21 "Hg10 mi
8:50 PM41 °FPassing clouds.8 mph93%30.24 "HgN/A
8:20 PM41 °FPassing clouds.8 mph93%30.24 "HgN/A
7:50 PM41 °FPartly cloudy.10 mph93%30.24 "HgN/A
7:20 PM43 °FPartly cloudy.9 mph87%30.21 "HgN/A
Weather by CustomWeather, © 2014

See weather overviewHow to use our weather pages